Weather in Changhwa

Taiwan     24°05′04″N   120°32′06″E
temp.,
°C
wind,
m/s
gust,
m/s
humid.,
%
clouds,
%
prec.,
mm/h
press.,
hPa
HPBL,
m
16 april, fri
fri1623:00+22n457465 0.0 1013327
02:00+22n347719 0.0 1013317
05:00+22nne23775 0.0 1013270
08:00+24nne446912 0.0 1014572
11:00+27nnw53565 0.0 1014855
14:00+27nnw65555 0.0 1012744
17:00+26nnw43585 0.0 1012557
20:00+24n45725 0.0 1014357
17 april, sat
sat1723:00+23n33745 0.0 1015291
02:00+23n34795 0.0 1014284
05:00+22nne35825 0.0 1015306
08:00+24n567011 0.0 1016607
11:00+27n88565 0.0 1015760
14:00+27n912505 0.0 1013856
17:00+26n912513 0.0 1013664
20:00+24nne69550 0.0 1014382
18 april, sun
sun1823:00+24nne34555 0.0 1015223
02:00+23nne23575 0.1 1014162
05:00+21n236445 0.8 1014199
08:00+24n33495 0.8 1015405
11:00+27nnw54375 0.0 1014917
14:00+28nnw75345 0.0 10111114
17:00+26n773844 0.0 1011644
20:00+23n684397 0.0 1014422
19 april, mon
mon1923:00+23n3345100 0.0 1014329
02:00+22nne345099 0.0 1013471
05:00+22nnw115196 0.0 1012314
08:00+23nnw325139 0.0 1013698
11:00+26nnw53446 0.0 10131146
14:00+27n77435 0.0 10111072
17:00+26n76475 0.0 1010745
20:00+24n45525 0.0 1012382
20 april, tue
tue2023:00+23wnw12585 0.0 1012376
02:00+22ssw246341 0.0 1011432
05:00+22se126667 0.0 1011258
08:00+24n22570 0.0 1013726
11:00+27nnw53472 0.0 10131209
14:00+28nnw65440 0.0 10111102
17:00+27nnw65480 0.0 1010780
20:00+25nnw33540 0.0 1012390